SCP
0 0 0 0 0 0 0 0 0 0 0 0 0 0 0 0 0 0 0 0 0 0 0 0 0 0 0 0 0 0 0 0
0 0 0 0 0 0 0 0 0 0 0 0 0 0 0 0 0 0 0 0 0 0 0 0 0 0 0 0 0 -0 0 0
0 0 0 0 0 0 0 0 0 0 0 0 0 0 0 0 0 0 0 0 0 0 0 0 0 0 0 0 0 -0 0 0
0 0 0 0 0 0 0 0 0 0 0 0 0 0 0 0 0 0 0 0 0 0 0 -0 -0 0 0 0 0 0 0 0
0 0 0 0 0 0 0 0 0 0 0 0 0 0 0 0 0 0 0 0 0 -0 0 0 0 0 0 0 0 -0 0 0
0 0 0 0 0 0 0 0 0 0 0 0 0 0 0 0 0 0 0 0 -0 -0 0 0 0 0 0 0 -0 -0 0 0
0 0 0 0 0 0 0 0 0 0 0 0 0 0 0 0 0 0 0 0 0 -0 0 0 0 0 0 0 0 0 0 0
0 0 0 0 0 0 0 0 0 0 0 0 0 0 0 0 0 0 0 0 0 0 0 0 0 0 0 0 0 0 0 0
0 0 0 0 0 0 0 0 0 0 0 0 0 0 0 0 0 0 0 0 0 0 0 0 0 0 0 0 0 0 0 0
0 0 0 0 0 0 0 0 0 0 0 0 0 0 0 0 0 0 0 0 0 0 0 0 0 0 0 0 0 0 0 0
0 0 0 0 0 0 0 0 0 0 0 0 0 0 0 0 0 0 0 0 0 -0 0 0 0 0 0 0 0 0 0 0
0 0 0 0 0 0 0 0 0 0 0 0 0 0 0 0 0 0 0 0 0 -0 0 0 0 0 0 0 0 0 0 0
0 0 0 0 0 0 0 0 0 0 0 0 0 0 0 0 0 0 0 0 -0 0 0 0 0 0 0 0 0 0 0 0
0 0 0 0 0 0 0 0 0 0 0 0 0 0 0 0 0 0 -0 0 -0 0 0 0 0 0 0 0 0 0 0 0
0 0 0 0 0 0 0 0 0 0 0 0 0 0 0 0 0 0 0 0 0 0 0 0 0 0 0 0 0 0 0 0
0 0 0 0 0 0 0 0 0 0 0 0 0 0 0 0 0 -0 -0 0 0 0 0 0 0 0 0 0 0 0 0 0
0 0 0 0 0 0 0 0 0 0 0 0 0 0 0 0 0 0 0 0 0 0 0 0 0 0 0 0 0 0 0 0
0 0 0 0 0 0 0 0 0 0 0 0 0 0 0 0 0 0 0 0 0 0 0 0 0 0 0 0 0 0 0 0
0 0 0 0 0 0 0 0 0 0 0 0 0 0 0 0 0 0 0 0 0 0 0 0 0 0 0 0 0 0 0 0
0 0 0 0 0 0 0 0 0 0 0 0 0 0 0 0 0 0 0 0 0 0 0 0 0 0 0 0 0 0 0 0
Wind_Speed_500mb
23 18 16 19 21 17 16 19 20 23 32 38 39 46 42 37 38 45 51 54 50 43 26 25 25 29 36 30 30 27 22 18
19 13 9 10 11 10 14 22 27 29 33 41 42 34 30 33 42 46 49 46 47 39 33 34 29 28 26 33 31 27 20 19
15 12 9 3 8 15 15 19 26 34 37 38 35 30 26 32 40 45 41 36 35 23 20 28 27 33 29 28 27 29 23 19
12 4 4 10 11 10 15 23 29 34 33 33 35 38 32 28 31 36 35 30 31 23 19 23 34 35 38 27 28 26 15 14
2 5 10 7 6 14 21 30 32 30 36 38 34 30 27 26 29 35 29 29 27 29 17 14 14 25 38 34 33 32 20 14
7 11 9 8 13 20 31 33 32 35 29 31 26 28 25 24 27 34 30 29 28 27 20 12 15 23 35 29 32 33 22 14
11 14 11 13 21 30 35 36 32 28 28 29 27 24 23 28 31 32 34 32 24 20 16 19 18 18 31 34 38 35 25 18
14 10 8 18 30 35 35 40 31 24 29 29 26 24 27 33 39 33 33 28 18 19 22 14 22 24 35 35 35 37 31 25
8 5 14 26 34 32 29 36 33 32 31 32 30 27 32 34 37 26 28 25 21 17 20 17 16 28 31 42 38 33 25 25
7 10 22 30 32 29 27 31 32 34 35 35 33 29 34 33 26 28 24 18 19 17 17 12 11 22 39 34 39 34 27 29
14 14 23 29 28 28 29 32 35 36 34 35 37 25 34 29 27 25 24 14 19 21 16 16 6 12 37 46 43 36 31 29
18 20 25 30 28 31 33 32 32 34 30 36 38 24 27 29 29 21 17 17 15 17 21 14 1 14 39 39 44 38 35 35
22 25 28 31 33 36 35 32 34 36 32 32 38 28 26 30 30 25 17 14 12 17 21 13 4 3 37 39 39 36 34 38
25 24 27 35 36 36 36 39 35 36 37 33 31 25 23 28 27 22 17 20 21 26 19 16 10 8 23 33 34 35 34 37
28 25 28 33 33 34 35 39 34 33 32 22 19 25 24 25 22 30 32 21 14 23 13 26 20 8 19 24 40 40 37 34
26 32 34 31 33 34 34 35 33 27 26 18 22 23 25 23 23 27 22 16 21 20 10 16 21 5 9 33 35 35 35 32
29 32 27 29 32 32 38 33 30 25 22 19 20 21 19 20 26 27 16 9 9 11 12 11 20 12 5 11 27 33 35 33
29 31 31 33 33 31 36 31 29 23 24 22 20 18 20 19 22 25 19 10 15 15 18 18 15 13 5 6 20 24 26 34
31 37 33 28 25 30 36 36 29 22 22 23 23 25 23 17 14 20 17 10 10 14 20 23 24 13 6 8 10 19 24 29
32 36 34 27 30 33 36 37 33 30 27 24 23 25 24 21 17 19 21 19 16 13 10 9 15 14 18 17 15 16 22 25
Wind_Direction_500mb
202 206 233 258 244 228 254 253 275 283 297 301 302 305 297 305 308 312 317 316 313 308 285 259 253 243 240 242 237 236 238 246
183 218 200 171 198 236 269 275 287 295 305 307 302 292 290 304 310 319 320 315 318 307 260 259 255 234 237 230 225 232 232 249
159 151 152 216 293 304 285 293 309 315 316 309 299 295 279 297 310 322 321 321 329 312 262 244 247 237 235 218 220 232 221 248
133 126 338 327 316 296 308 312 317 321 319 321 317 303 301 308 318 326 322 321 323 321 280 254 248 247 221 223 223 197 221 227
145 349 342 333 296 306 328 333 323 313 316 314 314 320 309 305 320 326 321 323 317 329 309 281 228 203 208 218 209 199 200 232
341 343 329 304 326 336 343 336 321 321 327 330 322 332 327 321 321 328 326 327 320 308 275 265 223 196 210 211 204 194 199 208
340 337 317 325 337 342 342 346 336 339 346 345 340 331 340 337 329 326 331 334 323 320 295 246 228 225 201 205 202 189 201 207
329 307 310 342 345 346 348 349 342 345 347 346 344 346 340 334 328 322 327 333 329 328 322 241 248 216 198 199 190 196 210 206
292 282 337 352 357 355 337 350 352 349 338 338 329 334 335 333 334 329 320 327 331 327 320 288 224 202 198 190 197 196 210 210
261 308 348 350 354 344 342 338 335 341 338 339 336 327 339 338 332 341 331 325 342 330 336 306 237 198 198 195 198 196 203 190
297 318 340 345 339 336 329 333 335 335 339 342 336 327 353 345 344 339 337 322 350 350 333 328 199 198 182 197 197 194 196 188
305 301 319 335 323 339 340 331 327 323 331 346 341 329 339 346 349 340 330 336 342 338 345 335 271 190 189 184 189 194 194 192
306 293 316 319 315 340 342 329 315 319 330 341 349 336 344 346 349 345 338 337 313 3 9 7 298 52 187 191 191 192 198 200
300 303 314 320 310 326 340 335 316 320 337 337 347 4 0 354 356 2 349 324 318 349 34 24 8 41 168 193 189 191 194 202
301 317 317 319 322 328 339 334 324 323 327 337 354 357 356 358 353 353 345 10 357 358 64 33 21 151 176 173 176 184 195 199
305 306 305 317 329 331 330 334 337 331 323 313 327 347 349 347 332 327 325 334 4 71 87 28 26 56 187 200 177 184 192 196
300 305 308 317 326 333 330 321 328 328 318 311 320 337 335 348 358 2 332 295 307 333 340 5 22 32 267 178 197 207 208 209
309 307 308 310 315 334 327 320 322 322 330 314 305 318 332 333 342 345 356 318 263 269 291 310 337 359 346 206 215 218 220 216
306 316 314 315 319 325 318 319 315 313 322 321 291 295 303 315 312 330 342 354 342 295 287 291 300 293 265 237 231 226 217 217
312 307 322 314 314 314 309 310 307 309 309 315 300 294 293 301 278 287 306 307 309 316 326 319 296 278 241 240 232 211 213 220
Wind_Speed_850mb
23 18 16 19 21 17 16 19 20 23 32 38 39 46 42 37 38 45 51 54 50 43 26 25 25 29 36 30 30 27 22 18
19 13 9 10 11 10 14 22 27 29 33 41 42 34 30 33 42 46 49 46 47 39 33 34 29 28 26 33 31 27 20 19
15 12 9 3 8 15 15 19 26 34 37 38 35 30 26 32 40 45 41 36 35 23 20 28 27 33 29 28 27 29 23 19
12 4 4 10 11 10 15 23 29 34 33 33 35 38 32 28 31 36 35 30 31 23 19 23 34 35 38 27 28 26 15 14
2 5 10 7 6 14 21 30 32 30 36 38 34 30 27 26 29 35 29 29 27 29 17 14 14 25 38 34 33 32 20 14
7 11 9 8 13 20 31 33 32 35 29 31 26 28 25 24 27 34 30 29 28 27 20 12 15 23 35 29 32 33 22 14
11 14 11 13 21 30 35 36 32 28 28 29 27 24 23 28 31 32 34 32 24 20 16 19 18 18 31 34 38 35 25 18
14 10 8 18 30 35 35 40 31 24 29 29 26 24 27 33 39 33 33 28 18 19 22 14 22 24 35 35 35 37 31 25
8 5 14 26 34 32 29 36 33 32 31 32 30 27 32 34 37 26 28 25 21 17 20 17 16 28 31 42 38 33 25 25
7 10 22 30 32 29 27 31 32 34 35 35 33 29 34 33 26 28 24 18 19 17 17 12 11 22 39 34 39 34 27 29
14 14 23 29 28 28 29 32 35 36 34 35 37 25 34 29 27 25 24 14 19 21 16 16 6 12 37 46 43 36 31 29
18 20 25 30 28 31 33 32 32 34 30 36 38 24 27 29 29 21 17 17 15 17 21 14 1 14 39 39 44 38 35 35
22 25 28 31 33 36 35 32 34 36 32 32 38 28 26 30 30 25 17 14 12 17 21 13 4 3 37 39 39 36 34 38
25 24 27 35 36 36 36 39 35 36 37 33 31 25 23 28 27 22 17 20 21 26 19 16 10 8 23 33 34 35 34 37
28 25 28 33 33 34 35 39 34 33 32 22 19 25 24 25 22 30 32 21 14 23 13 26 20 8 19 24 40 40 37 34
26 32 34 31 33 34 34 35 33 27 26 18 22 23 25 23 23 27 22 16 21 20 10 16 21 5 9 33 35 35 35 32
29 32 27 29 32 32 38 33 30 25 22 19 20 21 19 20 26 27 16 9 9 11 12 11 20 12 5 11 27 33 35 33
29 31 31 33 33 31 36 31 29 23 24 22 20 18 20 19 22 25 19 10 15 15 18 18 15 13 5 6 20 24 26 34
31 37 33 28 25 30 36 36 29 22 22 23 23 25 23 17 14 20 17 10 10 14 20 23 24 13 6 8 10 19 24 29
32 36 34 27 30 33 36 37 33 30 27 24 23 25 24 21 17 19 21 19 16 13 10 9 15 14 18 17 15 16 22 25
Wind_Direction_850mb
202 206 233 258 244 228 254 253 275 283 297 301 302 305 297 305 308 312 317 316 313 308 285 259 253 243 240 242 237 236 238 246
183 218 200 171 198 236 269 275 287 295 305 307 302 292 290 304 310 319 320 315 318 307 260 259 255 234 237 230 225 232 232 249
159 151 152 216 293 304 285 293 309 315 316 309 299 295 279 297 310 322 321 321 329 312 262 244 247 237 235 218 220 232 221 248
133 126 338 327 316 296 308 312 317 321 319 321 317 303 301 308 318 326 322 321 323 321 280 254 248 247 221 223 223 197 221 227
145 349 342 333 296 306 328 333 323 313 316 314 314 320 309 305 320 326 321 323 317 329 309 281 228 203 208 218 209 199 200 232
341 343 329 304 326 336 343 336 321 321 327 330 322 332 327 321 321 328 326 327 320 308 275 265 223 196 210 211 204 194 199 208
340 337 317 325 337 342 342 346 336 339 346 345 340 331 340 337 329 326 331 334 323 320 295 246 228 225 201 205 202 189 201 207
329 307 310 342 345 346 348 349 342 345 347 346 344 346 340 334 328 322 327 333 329 328 322 241 248 216 198 199 190 196 210 206
292 282 337 352 357 355 337 350 352 349 338 338 329 334 335 333 334 329 320 327 331 327 320 288 224 202 198 190 197 196 210 210
261 308 348 350 354 344 342 338 335 341 338 339 336 327 339 338 332 341 331 325 342 330 336 306 237 198 198 195 198 196 203 190
297 318 340 345 339 336 329 333 335 335 339 342 336 327 353 345 344 339 337 322 350 350 333 328 199 198 182 197 197 194 196 188
305 301 319 335 323 339 340 331 327 323 331 346 341 329 339 346 349 340 330 336 342 338 345 335 271 190 189 184 189 194 194 192
306 293 316 319 315 340 342 329 315 319 330 341 349 336 344 346 349 345 338 337 313 3 9 7 298 52 187 191 191 192 198 200
300 303 314 320 310 326 340 335 316 320 337 337 347 4 0 354 356 2 349 324 318 349 34 24 8 41 168 193 189 191 194 202
301 317 317 319 322 328 339 334 324 323 327 337 354 357 356 358 353 353 345 10 357 358 64 33 21 151 176 173 176 184 195 199
305 306 305 317 329 331 330 334 337 331 323 313 327 347 349 347 332 327 325 334 4 71 87 28 26 56 187 200 177 184 192 196
300 305 308 317 326 333 330 321 328 328 318 311 320 337 335 348 358 2 332 295 307 333 340 5 22 32 267 178 197 207 208 209
309 307 308 310 315 334 327 320 322 322 330 314 305 318 332 333 342 345 356 318 263 269 291 310 337 359 346 206 215 218 220 216
306 316 314 315 319 325 318 319 315 313 322 321 291 295 303 315 312 330 342 354 342 295 287 291 300 293 265 237 231 226 217 217
312 307 322 314 314 314 309 310 307 309 309 315 300 294 293 301 278 287 306 307 309 316 326 319 296 278 241 240 232 211 213 220